Time,TemperatureF,DewpointF,PressureIn,WindDirection,WindDirectionDegrees,WindSpeedMPH,WindSpeedGustMPH,Humidity,HourlyPrecipIn,Conditions,Clouds,dailyrainin,SoftwareType,DateUTC
2013-06-23 00:00:00,80.3,33.0,29.67,North,0,0.0,0.0,18,0.00,,SCT250,0.00,VWS V14.01,2013-06-23 06:00:00,
2013-06-23 00:01:00,80.3,33.0,29.67,North,0,0.0,0.0,18,0.00,,SCT250,0.00,VWS V14.01,2013-06-23 06:01:00,
2013-06-23 00:02:00,80.3,33.0,29.67,North,0,0.0,0.0,18,0.00,,SCT250,0.00,VWS V14.01,2013-06-23 06:02:00,
2013-06-23 00:03:00,80.3,33.0,29.67,North,0,0.0,0.0,18,0.00,,SCT250,0.00,VWS V14.01,2013-06-23 06:03:00,
2013-06-23 00:04:00,80.3,34.3,29.67,North,0,0.0,0.0,19,0.00,,SCT250,0.00,VWS V14.01,2013-06-23 06:04:00,
2013-06-23 00:05:00,80.3,34.3,29.67,North,0,0.0,0.0,19,0.00,,SCT250,0.00,VWS V14.01,2013-06-23 06:05:00,
2013-06-23 00:06:00,80.1,34.2,29.67,North,0,0.0,0.0,19,0.00,,SCT250,0.00,VWS V14.01,2013-06-23 06:06:00,
2013-06-23 00:07:00,80.1,32.8,29.67,North,0,0.0,0.0,18,0.00,,SCT250,0.00,VWS V14.01,2013-06-23 06:07:00,
2013-06-23 00:08:00,80.1,34.2,29.67,North,0,0.0,0.0,19,0.00,,SCT250,0.00,VWS V14.01,2013-06-23 06:08:00,
2013-06-23 00:09:00,80.1,34.2,29.67,North,0,0.0,0.0,19,0.00,,SCT250,0.00,VWS V14.01,2013-06-23 06:09:00,
2013-06-23 00:10:00,80.1,34.2,29.67,North,0,0.0,0.0,19,0.00,,SCT250,0.00,VWS V14.01,2013-06-23 06:10:00,
2013-06-23 00:11:00,80.1,34.2,29.67,North,0,0.0,0.0,19,0.00,,SCT250,0.00,VWS V14.01,2013-06-23 06:11:00,
2013-06-23 00:12:00,80.1,34.2,29.67,North,0,0.0,0.0,19,0.00,,SCT250,0.00,VWS V14.01,2013-06-23 06:12:00,
2013-06-23 00:13:00,80.1,34.2,29.67,North,0,0.0,0.0,19,0.00,,SCT250,0.00,VWS V14.01,2013-06-23 06:13:00,
2013-06-23 00:14:00,80.1,34.2,29.67,North,0,0.0,0.0,19,0.00,,SCT250,0.00,VWS V14.01,2013-06-23 06:14:00,
2013-06-23 00:15:00,80.1,34.2,29.67,North,0,0.0,0.0,19,0.00,,SCT250,0.00,VWS V14.01,2013-06-23 06:15:00,
2013-06-23 00:16:00,80.1,34.2,29.67,North,0,0.0,0.0,19,0.00,,SCT250,0.00,VWS V14.01,2013-06-23 06:16:00,
2013-06-23 00:17:00,80.1,34.2,29.67,North,0,0.0,0.0,19,0.00,,SCT250,0.00,VWS V14.01,2013-06-23 06:17:00,
2013-06-23 00:18:00,80.3,34.3,29.67,North,0,0.0,0.0,19,0.00,,SCT250,0.00,VWS V14.01,2013-06-23 06:18:00,
2013-06-23 00:19:00,80.3,33.0,29.67,North,0,0.0,0.0,18,0.00,,SCT250,0.00,VWS V14.01,2013-06-23 06:19:00,
2013-06-23 00:20:00,80.5,33.1,29.67,North,0,0.0,0.0,18,0.00,,SCT250,0.00,VWS V14.01,2013-06-23 06:20:00,
2013-06-23 00:21:00,80.5,33.1,29.67,North,0,0.0,0.0,18,0.00,,SCT250,0.00,VWS V14.01,2013-06-23 06:21:00,
2013-06-23 00:22:00,80.7,33.3,29.67,North,0,0.0,0.0,18,0.00,,SCT250,0.00,VWS V14.01,2013-06-23 06:22:00,
2013-06-23 00:23:00,80.9,32.0,29.67,North,0,0.0,0.0,17,0.00,,SCT250,0.00,VWS V14.01,2013-06-23 06:23:00,
2013-06-23 00:24:00,81.1,32.2,29.67,North,0,0.0,0.0,17,0.00,,SCT250,0.00,VWS V14.01,2013-06-23 06:24:00,
2013-06-23 00:25:00,81.2,32.3,29.67,North,0,0.0,0.0,17,0.00,,SCT250,0.00,VWS V14.01,2013-06-23 06:25:00,
2013-06-23 00:26:00,81.4,31.0,29.67,North,0,0.0,0.0,16,0.00,,SCT250,0.00,VWS V14.01,2013-06-23 06:26:00,
2013-06-23 00:27:00,81.6,31.1,29.67,North,0,0.0,0.0,16,0.00,,SCT250,0.00,VWS V14.01,2013-06-23 06:27:00,
2013-06-23 00:28:00,81.8,31.3,29.67,North,0,0.0,0.0,16,0.00,,SCT250,0.00,VWS V14.01,2013-06-23 06:28:00,
2013-06-23 00:29:00,82.0,31.4,29.67,North,0,0.0,0.0,16,0.00,,SCT250,0.00,VWS V14.01,2013-06-23 06:29:00,
2013-06-23 00:30:00,82.2,30.0,29.69,North,0,0.0,0.0,15,0.00,,SCT250,0.00,VWS V14.01,2013-06-23 06:30:00,
2013-06-23 00:31:00,82.4,30.2,29.69,North,0,0.0,0.0,15,0.00,,SCT250,0.00,VWS V14.01,2013-06-23 06:31:00,
2013-06-23 00:32:00,82.6,30.3,29.69,North,0,0.0,0.0,15,0.00,,SCT250,0.00,VWS V14.01,2013-06-23 06:32:00,
2013-06-23 00:33:00,82.6,30.3,29.69,North,0,0.0,0.0,15,0.00,,SCT250,0.00,VWS V14.01,2013-06-23 06:33:00,
2013-06-23 00:34:00,83.0,28.9,29.69,North,0,0.0,0.0,14,0.00,,SCT250,0.00,VWS V14.01,2013-06-23 06:34:00,
2013-06-23 00:35:00,83.2,29.1,29.69,North,0,0.0,0.0,14,0.00,,SCT250,0.00,VWS V14.01,2013-06-23 06:35:00,
2013-06-23 00:36:00,83.4,29.3,29.69,North,0,0.0,0.0,14,0.00,,SCT250,0.00,VWS V14.01,2013-06-23 06:36:00,
2013-06-23 00:37:00,83.8,29.6,29.69,North,0,0.0,0.0,14,0.00,,SCT250,0.00,VWS V14.01,2013-06-23 06:37:00,
2013-06-23 00:38:00,84.0,29.7,29.69,North,0,0.0,0.0,14,0.00,,SCT250,0.00,VWS V14.01,2013-06-23 06:38:00,
2013-06-23 00:39:00,84.1,29.8,29.69,North,0,0.0,0.0,14,0.00,,SCT250,0.00,VWS V14.01,2013-06-23 06:39:00,
2013-06-23 00:40:00,84.1,29.8,29.69,North,0,0.0,0.0,14,0.00,,SCT250,0.00,VWS V14.01,2013-06-23 06:40:00,
2013-06-23 00:41:00,84.3,30.0,29.69,North,0,0.0,0.0,14,0.00,,SCT250,0.00,VWS V14.01,2013-06-23 06:41:00,
2013-06-23 00:42:00,84.3,30.0,29.69,North,0,0.0,0.0,14,0.00,,SCT250,0.00,VWS V14.01,2013-06-23 06:42:00,
2013-06-23 00:43:00,84.5,30.1,29.69,North,0,0.0,0.0,14,0.00,,SCT250,0.00,VWS V14.01,2013-06-23 06:43:00,
2013-06-23 00:44:00,84.5,30.1,29.69,North,0,0.0,0.0,14,0.00,,SCT250,0.00,VWS V14.01,2013-06-23 06:44:00,
2013-06-23 00:45:00,84.7,30.3,29.69,North,0,0.0,0.0,14,0.00,,SCT250,0.00,VWS V14.01,2013-06-23 06:45:00,
2013-06-23 00:46:00,84.7,30.3,29.69,North,0,0.0,0.0,14,0.00,,SCT250,0.00,VWS V14.01,2013-06-23 06:46:00,
2013-06-23 00:47:00,84.7,30.3,29.69,North,0,0.0,0.0,14,0.00,,SCT250,0.00,VWS V14.01,2013-06-23 06:47:00,
2013-06-23 00:48:00,84.7,30.3,29.69,North,0,0.0,0.0,14,0.00,,SCT250,0.00,VWS V14.01,2013-06-23 06:48:00,
2013-06-23 00:49:00,84.7,30.3,29.69,North,0,0.0,0.0,14,0.00,,SCT250,0.00,VWS V14.01,2013-06-23 06:49:00,
2013-06-23 00:50:00,84.7,30.3,29.69,North,0,0.0,0.0,14,0.00,,SCT250,0.00,VWS V14.01,2013-06-23 06:50:00,
2013-06-23 00:51:00,84.7,30.3,29.69,North,0,0.0,0.0,14,0.00,,SCT250,0.00,VWS V14.01,2013-06-23 06:51:00,
2013-06-23 00:52:00,84.7,30.3,29.69,North,0,0.0,0.0,14,0.00,,SCT250,0.00,VWS V14.01,2013-06-23 06:52:00,
2013-06-23 00:53:00,84.7,32.0,29.69,North,0,0.0,0.0,15,0.00,,SCT250,0.00,VWS V14.01,2013-06-23 06:53:00,
2013-06-23 00:54:00,84.7,32.0,29.69,North,0,0.0,0.0,15,0.00,,SCT250,0.00,VWS V14.01,2013-06-23 06:54:00,
2013-06-23 00:55:00,84.7,32.0,29.69,North,0,0.0,0.0,15,0.00,,SCT250,0.00,VWS V14.01,2013-06-23 06:55:00,
2013-06-23 00:56:00,84.7,32.0,29.69,North,0,0.0,0.0,15,0.00,,SCT250,0.00,VWS V14.01,2013-06-23 06:56:00,
2013-06-23 00:57:00,84.9,32.2,29.69,North,0,0.0,0.0,15,0.00,,SCT250,0.00,VWS V14.01,2013-06-23 06:57:00,
2013-06-23 00:58:00,84.9,32.2,29.69,North,0,0.0,0.0,15,0.00,,SCT250,0.00,VWS V14.01,2013-06-23 06:58:00,
2013-06-23 00:59:00,84.9,32.2,29.69,North,0,0.0,0.0,15,0.00,,SCT250,0.00,VWS V14.01,2013-06-23 06:59:00,
2013-06-23 01:00:00,84.9,32.2,29.69,North,0,0.0,0.0,15,0.00,,SCT250,0.00,VWS V14.01,2013-06-23 07:00:00,
2013-06-23 01:01:00,84.9,32.2,29.69,North,0,0.0,0.0,15,0.00,,SCT250,0.00,VWS V14.01,2013-06-23 07:01:00,
2013-06-23 01:02:00,84.9,32.2,29.69,North,0,0.0,0.0,15,0.00,,SCT250,0.00,VWS V14.01,2013-06-23 07:02:00,
2013-06-23 01:03:00,84.9,32.2,29.69,North,0,0.0,0.0,15,0.00,,SCT250,0.00,VWS V14.01,2013-06-23 07:03:00,
2013-06-23 01:04:00,84.9,32.2,29.69,North,0,0.0,0.0,15,0.00,,SCT250,0.00,VWS V14.01,2013-06-23 07:04:00,
2013-06-23 01:05:00,85.1,32.3,29.69,North,0,0.0,0.0,15,0.00,,SCT250,0.00,VWS V14.01,2013-06-23 07:05:00,
2013-06-23 01:06:00,85.1,33.9,29.69,North,0,0.0,0.0,16,0.00,,SCT250,0.00,VWS V14.01,2013-06-23 07:06:00,
2013-06-23 01:07:00,85.1,33.9,29.69,North,0,0.0,0.0,16,0.00,,SCT250,0.00,VWS V14.01,2013-06-23 07:07:00,
2013-06-23 01:08:00,85.1,33.9,29.69,North,0,0.0,0.0,16,0.00,,SCT250,0.00,VWS V14.01,2013-06-23 07:08:00,
2013-06-23 01:09:00,84.9,33.8,29.69,North,0,0.0,0.0,16,0.00,,SCT250,0.00,VWS V14.01,2013-06-23 07:09:00,
2013-06-23 01:10:00,84.9,33.8,29.69,North,0,0.0,0.0,16,0.00,,SCT250,0.00,VWS V14.01,2013-06-23 07:10:00,
2013-06-23 01:11:00,84.9,35.3,29.69,North,0,0.0,0.0,17,0.00,,SCT250,0.00,VWS V14.01,2013-06-23 07:11:00,
2013-06-23 01:12:00,84.9,35.3,29.69,North,0,0.0,0.0,17,0.00,,SCT250,0.00,VWS V14.01,2013-06-23 07:12:00,
2013-06-23 01:13:00,84.9,36.7,29.69,North,0,0.0,0.0,18,0.00,,SCT250,0.00,VWS V14.01,2013-06-23 07:13:00,
2013-06-23 01:14:00,84.9,36.7,29.69,North,0,0.0,0.0,18,0.00,,SCT250,0.00,VWS V14.01,2013-06-23 07:14:00,
2013-06-23 01:15:00,84.9,36.7,29.69,North,0,0.0,0.0,18,0.00,,SCT250,0.00,VWS V14.01,2013-06-23 07:15:00,
2013-06-23 01:16:00,84.7,36.5,29.69,North,0,0.0,0.0,18,0.00,,SCT250,0.00,VWS V14.01,2013-06-23 07:16:00,
2013-06-23 01:17:00,84.7,37.9,29.69,North,0,0.0,0.0,19,0.00,,SCT250,0.00,VWS V14.01,2013-06-23 07:17:00,
2013-06-23 01:18:00,84.7,37.9,29.69,North,0,0.0,0.0,19,0.00,,SCT250,0.00,VWS V14.01,2013-06-23 07:18:00,
2013-06-23 01:19:00,84.5,37.8,29.69,North,0,0.0,0.0,19,0.00,,SCT250,0.00,VWS V14.01,2013-06-23 07:19:00,
2013-06-23 01:20:00,84.5,37.8,29.69,North,0,0.0,0.0,19,0.00,,SCT250,0.00,VWS V14.01,2013-06-23 07:20:00,
2013-06-23 01:21:00,84.5,37.8,29.69,North,0,0.0,0.0,19,0.00,,SCT250,0.00,VWS V14.01,2013-06-23 07:21:00,
2013-06-23 01:22:00,84.5,37.8,29.69,North,0,0.0,0.0,19,0.00,,SCT250,0.00,VWS V14.01,2013-06-23 07:22:00,
2013-06-23 01:23:00,84.3,38.9,29.69,North,0,0.0,0.0,20,0.00,,SCT250,0.00,VWS V14.01,2013-06-23 07:23:00,
2013-06-23 01:24:00,84.3,38.9,29.69,North,0,0.0,0.0,20,0.00,,SCT250,0.00,VWS V14.01,2013-06-23 07:24:00,
2013-06-23 01:25:00,84.3,38.9,29.69,North,0,0.0,0.0,20,0.00,,SCT250,0.00,VWS V14.01,2013-06-23 07:25:00,
2013-06-23 01:26:00,84.3,38.9,29.69,North,0,0.0,0.0,20,0.00,,SCT250,0.00,VWS V14.01,2013-06-23 07:26:00,
2013-06-23 01:27:00,84.1,40.0,29.69,North,0,0.0,0.0,21,0.00,,SCT250,0.00,VWS V14.01,2013-06-23 07:27:00,
2013-06-23 01:28:00,84.1,40.0,29.69,North,0,0.0,0.0,21,0.00,,SCT250,0.00,VWS V14.01,2013-06-23 07:28:00,
2013-06-23 01:29:00,84.1,40.0,29.69,North,0,0.0,0.0,21,0.00,,SCT250,0.00,VWS V14.01,2013-06-23 07:29:00,
2013-06-23 01:30:00,84.1,41.2,29.69,North,0,0.0,0.0,22,0.00,,SCT250,0.00,VWS V14.01,2013-06-23 07:30:00,
2013-06-23 01:31:00,84.0,41.1,29.69,North,0,0.0,0.0,22,0.00,,SCT250,0.00,VWS V14.01,2013-06-23 07:31:00,
2013-06-23 01:32:00,84.0,42.3,29.69,North,0,0.0,0.0,23,0.00,,SCT250,0.00,VWS V14.01,2013-06-23 07:32:00,
2013-06-23 01:33:00,84.0,42.3,29.69,North,0,0.0,0.0,23,0.00,,SCT250,0.00,VWS V14.01,2013-06-23 07:33:00,
2013-06-23 01:34:00,84.0,42.3,29.69,North,0,0.0,0.0,23,0.00,,SCT250,0.00,VWS V14.01,2013-06-23 07:34:00,
2013-06-23 01:35:00,84.0,43.4,29.69,North,0,0.0,0.0,24,0.00,,SCT250,0.00,VWS V14.01,2013-06-23 07:35:00,
2013-06-23 01:36:00,83.8,43.2,29.69,North,0,0.0,0.0,24,0.00,,SCT250,0.00,VWS V14.01,2013-06-23 07:36:00,
2013-06-23 01:37:00,83.8,43.2,29.69,North,0,0.0,0.0,24,0.00,,SCT250,0.00,VWS V14.01,2013-06-23 07:37:00,
2013-06-23 01:38:00,83.8,44.3,29.69,North,0,0.0,0.0,25,0.00,,SCT250,0.00,VWS V14.01,2013-06-23 07:38:00,
2013-06-23 01:39:00,83.6,44.1,29.69,North,0,0.0,0.0,25,0.00,,SCT250,0.00,VWS V14.01,2013-06-23 07:39:00,
2013-06-23 01:40:00,83.6,44.1,29.69,North,0,0.0,0.0,25,0.00,,SCT250,0.00,VWS V14.01,2013-06-23 07:40:00,
2013-06-23 01:41:00,83.6,44.1,29.69,North,0,0.0,0.0,25,0.00,,SCT250,0.00,VWS V14.01,2013-06-23 07:41:00,
2013-06-23 01:42:00,83.6,44.1,29.69,North,0,0.0,0.0,25,0.00,,SCT250,0.00,VWS V14.01,2013-06-23 07:42:00,
2013-06-23 01:43:00,83.4,45.0,29.69,North,0,0.0,0.0,26,0.00,,SCT250,0.00,VWS V14.01,2013-06-23 07:43:00,
2013-06-23 01:44:00,83.4,45.0,29.69,North,0,0.0,0.0,26,0.00,,SCT250,0.00,VWS V14.01,2013-06-23 07:44:00,
2013-06-23 01:45:00,83.4,45.0,29.69,North,0,0.0,0.0,26,0.00,,SCT250,0.00,VWS V14.01,2013-06-23 07:45:00,
2013-06-23 01:46:00,83.2,44.8,29.69,North,0,0.0,0.0,26,0.00,,SCT250,0.00,VWS V14.01,2013-06-23 07:46:00,
2013-06-23 01:47:00,83.2,44.8,29.69,North,0,0.0,0.0,26,0.00,,SCT250,0.00,VWS V14.01,2013-06-23 07:47:00,
2013-06-23 01:48:00,83.0,44.6,29.69,North,0,0.0,0.0,26,0.00,,SCT250,0.00,VWS V14.01,2013-06-23 07:48:00,
2013-06-23 01:49:00,83.0,44.6,29.69,North,0,0.0,0.0,26,0.00,,SCT250,0.00,VWS V14.01,2013-06-23 07:49:00,
2013-06-23 01:50:00,82.8,45.4,29.69,North,0,0.0,0.0,27,0.00,,SCT250,0.00,VWS V14.01,2013-06-23 07:50:00,
2013-06-23 01:51:00,82.6,45.3,29.69,North,0,0.0,0.0,27,0.00,,SCT250,0.00,VWS V14.01,2013-06-23 07:51:00,
2013-06-23 01:52:00,82.6,45.3,29.69,North,0,0.0,0.0,27,0.00,,SCT250,0.00,VWS V14.01,2013-06-23 07:52:00,
2013-06-23 01:53:00,82.6,45.3,29.69,North,0,0.0,0.0,27,0.00,,SCT250,0.00,VWS V14.01,2013-06-23 07:53:00,
2013-06-23 01:54:00,82.4,45.1,29.69,North,0,0.0,0.0,27,0.00,,SCT250,0.00,VWS V14.01,2013-06-23 07:54:00,
2013-06-23 01:55:00,82.4,45.1,29.69,North,0,0.0,0.0,27,0.00,,SCT250,0.00,VWS V14.01,2013-06-23 07:55:00,
2013-06-23 01:56:00,82.2,44.9,29.69,North,0,0.0,0.0,27,0.00,,SCT250,0.00,VWS V14.01,2013-06-23 07:56:00,
2013-06-23 01:57:00,82.2,44.9,29.69,North,0,0.0,0.0,27,0.00,,SCT250,0.00,VWS V14.01,2013-06-23 07:57:00,
2013-06-23 01:58:00,82.2,45.9,29.69,North,0,0.0,0.0,28,0.00,,SCT250,0.00,VWS V14.01,2013-06-23 07:58:00,
2013-06-23 01:59:00,82.2,44.9,29.69,North,0,0.0,0.0,27,0.00,,SCT250,0.00,VWS V14.01,2013-06-23 07:59:00,
2013-06-23 02:00:00,82.2,45.9,29.70,North,0,0.0,0.0,28,0.00,,SCT250,0.00,VWS V14.01,2013-06-23 08:00:00,
2013-06-23 02:01:00,82.2,45.9,29.70,North,0,0.0,0.0,28,0.00,,SCT250,0.00,VWS V14.01,2013-06-23 08:01:00,
2013-06-23 02:02:00,82.2,45.9,29.70,North,0,0.0,0.0,28,0.00,,SCT250,0.00,VWS V14.01,2013-06-23 08:02:00,
2013-06-23 02:03:00,82.2,45.9,29.70,North,0,0.0,0.0,28,0.00,,SCT250,0.00,VWS V14.01,2013-06-23 08:03:00,
2013-06-23 02:04:00,82.2,45.9,29.70,North,0,0.0,0.0,28,0.00,,SCT250,0.00,VWS V14.01,2013-06-23 08:04:00,
2013-06-23 02:05:00,82.2,45.9,29.70,North,0,0.0,0.0,28,0.00,,SCT250,0.00,VWS V14.01,2013-06-23 08:05:00,
2013-06-23 02:06:00,82.2,45.9,29.70,North,0,0.0,0.0,28,0.00,,SCT250,0.00,VWS V14.01,2013-06-23 08:06:00,
2013-06-23 02:07:00,82.2,45.9,29.70,North,0,0.0,0.0,28,0.00,,SCT250,0.00,VWS V14.01,2013-06-23 08:07:00,
2013-06-23 02:08:00,82.2,45.9,29.70,North,0,0.0,0.0,28,0.00,,SCT250,0.00,VWS V14.01,2013-06-23 08:08:00,
2013-06-23 02:09:00,82.2,44.9,29.70,North,0,0.0,0.0,27,0.00,,SCT250,0.00,VWS V14.01,2013-06-23 08:09:00,
2013-06-23 02:10:00,82.2,44.9,29.70,North,0,0.0,0.0,27,0.00,,SCT250,0.00,VWS V14.01,2013-06-23 08:10:00,
2013-06-23 02:11:00,82.2,44.9,29.70,North,0,0.0,0.0,27,0.00,,SCT250,0.00,VWS V14.01,2013-06-23 08:11:00,
2013-06-23 02:12:00,82.0,45.7,29.70,North,0,0.0,0.0,28,0.00,,SCT250,0.00,VWS V14.01,2013-06-23 08:12:00,
2013-06-23 02:13:00,82.0,45.7,29.70,North,0,0.0,0.0,28,0.00,,SCT250,0.00,VWS V14.01,2013-06-23 08:13:00,
2013-06-23 02:14:00,82.0,45.7,29.70,North,0,0.0,0.0,28,0.00,,SCT250,0.00,VWS V14.01,2013-06-23 08:14:00,
2013-06-23 02:15:00,82.0,45.7,29.69,North,0,0.0,0.0,28,0.00,,SCT250,0.00,VWS V14.01,2013-06-23 08:15:00,
2013-06-23 02:16:00,82.0,45.7,29.69,North,0,0.0,0.0,28,0.00,,SCT250,0.00,VWS V14.01,2013-06-23 08:16:00,
2013-06-23 02:17:00,81.8,45.5,29.69,North,0,0.0,0.0,28,0.00,,SCT250,0.00,VWS V14.01,2013-06-23 08:17:00,
2013-06-23 02:18:00,81.8,45.5,29.69,North,0,0.0,0.0,28,0.00,,SCT250,0.00,VWS V14.01,2013-06-23 08:18:00,
2013-06-23 02:19:00,81.8,45.5,29.69,North,0,0.0,0.0,28,0.00,,SCT250,0.00,VWS V14.01,2013-06-23 08:19:00,
2013-06-23 02:20:00,81.8,46.5,29.69,North,0,0.0,0.0,29,0.00,,SCT250,0.00,VWS V14.01,2013-06-23 08:20:00,
2013-06-23 02:21:00,81.8,46.5,29.69,North,0,0.0,0.0,29,0.00,,SCT250,0.00,VWS V14.01,2013-06-23 08:21:00,
2013-06-23 02:22:00,81.8,46.5,29.69,North,0,0.0,0.0,29,0.00,,SCT250,0.00,VWS V14.01,2013-06-23 08:22:00,
2013-06-23 02:23:00,81.8,46.5,29.69,North,0,0.0,0.0,29,0.00,,SCT250,0.00,VWS V14.01,2013-06-23 08:23:00,
2013-06-23 02:24:00,81.8,46.5,29.69,North,0,0.0,0.0,29,0.00,,SCT250,0.00,VWS V14.01,2013-06-23 08:24:00,
2013-06-23 02:25:00,81.8,46.5,29.69,North,0,0.0,0.0,29,0.00,,SCT250,0.00,VWS V14.01,2013-06-23 08:25:00,
2013-06-23 02:26:00,81.6,46.3,29.69,North,0,0.0,0.0,29,0.00,,SCT250,0.00,VWS V14.01,2013-06-23 08:26:00,
2013-06-23 02:27:00,81.6,46.3,29.69,North,0,0.0,0.0,29,0.00,,SCT250,0.00,VWS V14.01,2013-06-23 08:27:00,
2013-06-23 02:28:00,81.6,46.3,29.69,North,0,0.0,0.0,29,0.00,,SCT250,0.00,VWS V14.01,2013-06-23 08:28:00,
2013-06-23 02:29:00,81.6,46.3,29.69,North,0,0.0,0.0,29,0.00,,SCT250,0.00,VWS V14.01,2013-06-23 08:29:00,
2013-06-23 02:30:00,81.6,46.3,29.70,North,0,0.0,0.0,29,0.00,,SCT250,0.00,VWS V14.01,2013-06-23 08:30:00,
2013-06-23 02:31:00,81.6,46.3,29.70,North,0,0.0,0.0,29,0.00,,SCT250,0.00,VWS V14.01,2013-06-23 08:31:00,
2013-06-23 02:32:00,81.6,46.3,29.70,North,0,0.0,0.0,29,0.00,,SCT250,0.00,VWS V14.01,2013-06-23 08:32:00,
2013-06-23 02:33:00,81.6,46.3,29.70,North,0,0.0,0.0,29,0.00,,SCT250,0.00,VWS V14.01,2013-06-23 08:33:00,
2013-06-23 02:34:00,81.4,46.1,29.70,North,0,0.0,0.0,29,0.00,,SCT250,0.00,VWS V14.01,2013-06-23 08:34:00,
2013-06-23 02:35:00,81.4,46.1,29.70,North,0,0.0,0.0,29,0.00,,SCT250,0.00,VWS V14.01,2013-06-23 08:35:00,
2013-06-23 02:36:00,81.4,46.1,29.70,North,0,0.0,0.0,29,0.00,,SCT250,0.00,VWS V14.01,2013-06-23 08:36:00,
2013-06-23 02:37:00,81.4,46.1,29.70,North,0,0.0,0.0,29,0.00,,SCT250,0.00,VWS V14.01,2013-06-23 08:37:00,
2013-06-23 02:38:00,81.2,46.8,29.70,North,0,0.0,0.0,30,0.00,,SCT250,0.00,VWS V14.01,2013-06-23 08:38:00,
2013-06-23 02:39:00,81.2,47.7,29.70,North,0,0.0,0.0,31,0.00,,SCT250,0.00,VWS V14.01,2013-06-23 08:39:00,
2013-06-23 02:40:00,81.2,47.7,29.70,North,0,0.0,0.0,31,0.00,,SCT250,0.00,VWS V14.01,2013-06-23 08:40:00,
2013-06-23 02:41:00,81.1,47.6,29.70,North,0,0.0,0.0,31,0.00,,SCT250,0.00,VWS V14.01,2013-06-23 08:41:00,
2013-06-23 02:42:00,81.1,48.5,29.70,North,0,0.0,0.0,32,0.00,,SCT250,0.00,VWS V14.01,2013-06-23 08:42:00,
2013-06-23 02:43:00,80.9,48.3,29.70,North,0,0.0,0.0,32,0.00,,SCT250,0.00,VWS V14.01,2013-06-23 08:43:00,
2013-06-23 02:44:00,80.9,48.3,29.70,North,0,0.0,0.0,32,0.00,,SCT250,0.00,VWS V14.01,2013-06-23 08:44:00,
2013-06-23 02:45:00,80.7,49.0,29.70,North,0,0.0,0.0,33,0.00,,SCT250,0.00,VWS V14.01,2013-06-23 08:45:00,
2013-06-23 02:46:00,80.5,48.8,29.70,North,0,0.0,0.0,33,0.00,,SCT250,0.00,VWS V14.01,2013-06-23 08:46:00,
2013-06-23 02:47:00,80.5,48.8,29.70,North,0,0.0,0.0,33,0.00,,SCT250,0.00,VWS V14.01,2013-06-23 08:47:00,
2013-06-23 02:48:00,80.3,48.6,29.70,North,0,0.0,0.0,33,0.00,,SCT250,0.00,VWS V14.01,2013-06-23 08:48:00,
2013-06-23 02:49:00,80.3,49.4,29.70,North,0,0.0,0.0,34,0.00,,SCT250,0.00,VWS V14.01,2013-06-23 08:49:00,
2013-06-23 02:50:00,80.3,49.4,29.70,North,0,0.0,0.0,34,0.00,,SCT250,0.00,VWS V14.01,2013-06-23 08:50:00,
2013-06-23 02:51:00,80.1,49.2,29.70,North,0,0.0,0.0,34,0.00,,SCT250,0.00,VWS V14.01,2013-06-23 08:51:00,
2013-06-23 02:52:00,80.1,49.2,29.70,North,0,0.0,0.0,34,0.00,,SCT250,0.00,VWS V14.01,2013-06-23 08:52:00,
2013-06-23 02:53:00,79.9,49.0,29.70,North,0,0.0,0.0,34,0.00,,SCT250,0.00,VWS V14.01,2013-06-23 08:53:00,
2013-06-23 02:54:00,79.9,49.0,29.70,North,0,0.0,0.0,34,0.00,,SCT250,0.00,VWS V14.01,2013-06-23 08:54:00,
2013-06-23 02:55:00,79.8,49.0,29.70,North,0,0.0,0.0,34,0.00,,SCT250,0.00,VWS V14.01,2013-06-23 08:55:00,
2013-06-23 02:56:00,79.8,49.0,29.70,North,0,0.0,0.0,34,0.00,,SCT250,0.00,VWS V14.01,2013-06-23 08:56:00,
2013-06-23 02:57:00,79.8,49.7,29.70,North,0,0.0,0.0,35,0.00,,SCT250,0.00,VWS V14.01,2013-06-23 08:57:00,
2013-06-23 02:58:00,79.6,49.6,29.70,North,0,0.0,0.0,35,0.00,,SCT250,0.00,VWS V14.01,2013-06-23 08:58:00,
2013-06-23 02:59:00,79.6,49.6,29.70,North,0,0.0,0.0,35,0.00,,SCT250,0.00,VWS V14.01,2013-06-23 08:59:00,
2013-06-23 03:00:00,79.6,49.6,29.71,North,0,0.0,0.0,35,0.00,,SCT250,0.00,VWS V14.01,2013-06-23 09:00:00,
2013-06-23 03:01:00,79.4,49.4,29.71,North,0,0.0,0.0,35,0.00,,SCT250,0.00,VWS V14.01,2013-06-23 09:01:00,
2013-06-23 03:02:00,79.4,49.4,29.71,North,0,0.0,0.0,35,0.00,,BKN220,0.00,VWS V14.01,2013-06-23 09:02:00,
2013-06-23 03:03:00,79.4,49.4,29.71,North,0,0.0,0.0,35,0.00,,BKN220,0.00,VWS V14.01,2013-06-23 09:03:00,
2013-06-23 03:04:00,79.4,49.4,29.71,North,0,0.0,0.0,35,0.00,,BKN220,0.00,VWS V14.01,2013-06-23 09:04:00,
2013-06-23 03:05:00,79.2,49.2,29.71,North,0,0.0,0.0,35,0.00,,BKN220,0.00,VWS V14.01,2013-06-23 09:05:00,
2013-06-23 03:06:00,79.2,49.2,29.71,North,0,0.0,0.0,35,0.00,,BKN220,0.00,VWS V14.01,2013-06-23 09:06:00,
2013-06-23 03:07:00,79.2,49.2,29.71,North,0,0.0,0.0,35,0.00,,BKN220,0.00,VWS V14.01,2013-06-23 09:07:00,
2013-06-23 03:08:00,79.2,49.2,29.71,North,0,0.0,0.0,35,0.00,,BKN220,0.00,VWS V14.01,2013-06-23 09:08:00,
2013-06-23 03:09:00,79.2,49.2,29.71,North,0,0.0,0.0,35,0.00,,BKN220,0.00,VWS V14.01,2013-06-23 09:09:00,
2013-06-23 03:10:00,79.0,49.0,29.71,North,0,0.0,0.0,35,0.00,,BKN220,0.00,VWS V14.01,2013-06-23 09:10:00,
2013-06-23 03:11:00,79.0,49.8,29.71,North,0,0.0,0.0,36,0.00,,BKN220,0.00,VWS V14.01,2013-06-23 09:11:00,
2013-06-23 03:12:00,79.0,49.8,29.71,North,0,0.0,0.0,36,0.00,,BKN220,0.00,VWS V14.01,2013-06-23 09:12:00,
2013-06-23 03:13:00,79.0,49.8,29.71,North,0,0.0,0.0,36,0.00,,BKN220,0.00,VWS V14.01,2013-06-23 09:13:00,
2013-06-23 03:14:00,78.8,49.6,29.71,North,0,0.0,0.0,36,0.00,,BKN220,0.00,VWS V14.01,2013-06-23 09:14:00,
2013-06-23 03:15:00,78.8,49.6,29.71,North,0,0.0,0.0,36,0.00,,BKN220,0.00,VWS V14.01,2013-06-23 09:15:00,
2013-06-23 03:16:00,78.8,49.6,29.71,North,0,0.0,0.0,36,0.00,,BKN220,0.00,VWS V14.01,2013-06-23 09:16:00,
2013-06-23 03:17:00,78.8,49.6,29.71,North,0,0.0,0.0,36,0.00,,BKN220,0.00,VWS V14.01,2013-06-23 09:17:00,
2013-06-23 03:18:00,78.8,50.4,29.71,North,0,0.0,0.0,37,0.00,,BKN220,0.00,VWS V14.01,2013-06-23 09:18:00,
2013-06-23 03:19:00,78.6,50.2,29.71,North,0,0.0,0.0,37,0.00,,BKN220,0.00,VWS V14.01,2013-06-23 09:19:00,
2013-06-23 03:20:00,78.6,50.2,29.71,North,0,0.0,0.0,37,0.00,,BKN220,0.00,VWS V14.01,2013-06-23 09:20:00,
2013-06-23 03:21:00,78.6,50.2,29.71,North,0,0.0,0.0,37,0.00,,BKN220,0.00,VWS V14.01,2013-06-23 09:21:00,
2013-06-23 03:22:00,78.6,50.2,29.71,North,0,0.0,0.0,37,0.00,,BKN220,0.00,VWS V14.01,2013-06-23 09:22:00,
2013-06-23 03:23:00,78.5,50.1,29.71,North,0,0.0,0.0,37,0.00,,BKN220,0.00,VWS V14.01,2013-06-23 09:23:00,
2013-06-23 03:24:00,78.5,50.1,29.71,North,0,0.0,0.0,37,0.00,,BKN220,0.00,VWS V14.01,2013-06-23 09:24:00,
2013-06-23 03:25:00,78.5,50.1,29.71,North,0,0.0,0.0,37,0.00,,BKN220,0.00,VWS V14.01,2013-06-23 09:25:00,
2013-06-23 03:26:00,78.5,50.1,29.71,North,0,0.0,0.0,37,0.00,,BKN220,0.00,VWS V14.01,2013-06-23 09:26:00,
2013-06-23 03:27:00,78.5,50.1,29.71,North,0,0.0,0.0,37,0.00,,BKN220,0.00,VWS V14.01,2013-06-23 09:27:00,
2013-06-23 03:28:00,78.5,50.1,29.71,North,0,0.0,0.0,37,0.00,,BKN220,0.00,VWS V14.01,2013-06-23 09:28:00,
2013-06-23 03:29:00,78.5,50.1,29.71,North,0,0.0,0.0,37,0.00,,BKN220,0.00,VWS V14.01,2013-06-23 09:29:00,
2013-06-23 03:30:00,78.3,49.9,29.71,North,0,0.0,0.0,37,0.00,,BKN220,0.00,VWS V14.01,2013-06-23 09:30:00,
2013-06-23 03:31:00,78.3,49.9,29.71,North,0,0.0,0.0,37,0.00,,BKN220,0.00,VWS V14.01,2013-06-23 09:31:00,
2013-06-23 03:32:00,78.3,49.9,29.71,North,0,0.0,0.0,37,0.00,,BKN220,0.00,VWS V14.01,2013-06-23 09:32:00,
2013-06-23 03:33:00,78.3,49.9,29.71,North,0,0.0,0.0,37,0.00,,BKN220,0.00,VWS V14.01,2013-06-23 09:33:00,
2013-06-23 03:34:00,78.3,49.9,29.71,North,0,0.0,0.0,37,0.00,,BKN220,0.00,VWS V14.01,2013-06-23 09:34:00,
2013-06-23 03:35:00,78.3,50.6,29.71,North,0,0.0,0.0,38,0.00,,BKN220,0.00,VWS V14.01,2013-06-23 09:35:00,
2013-06-23 03:36:00,78.3,49.9,29.71,North,0,0.0,0.0,37,0.00,,BKN220,0.00,VWS V14.01,2013-06-23 09:36:00,
2013-06-23 03:37:00,78.3,50.6,29.71,North,0,0.0,0.0,38,0.00,,BKN220,0.00,VWS V14.01,2013-06-23 09:37:00,
2013-06-23 03:38:00,78.1,50.5,29.71,North,0,0.0,0.0,38,0.00,,BKN220,0.00,VWS V14.01,2013-06-23 09:38:00,
2013-06-23 03:39:00,78.1,50.5,29.71,North,0,0.0,0.0,38,0.00,,BKN220,0.00,VWS V14.01,2013-06-23 09:39:00,
2013-06-23 03:40:00,78.1,50.5,29.71,North,0,0.0,0.0,38,0.00,,BKN220,0.00,VWS V14.01,2013-06-23 09:40:00,
2013-06-23 03:41:00,78.1,50.5,29.71,North,0,0.0,0.0,38,0.00,,BKN220,0.00,VWS V14.01,2013-06-23 09:41:00,
2013-06-23 03:42:00,78.1,50.5,29.71,North,0,0.0,0.0,38,0.00,,BKN220,0.00,VWS V14.01,2013-06-23 09:42:00,
2013-06-23 03:43:00,78.1,50.5,29.71,North,0,0.0,0.0,38,0.00,,BKN220,0.00,VWS V14.01,2013-06-23 09:43:00,
2013-06-23 03:44:00,78.1,50.5,29.71,North,0,0.0,0.0,38,0.00,,BKN220,0.00,VWS V14.01,2013-06-23 09:44:00,
2013-06-23 03:45:00,77.9,50.3,29.71,North,0,0.0,0.0,38,0.00,,BKN220,0.00,VWS V14.01,2013-06-23 09:45:00,
2013-06-23 03:46:00,77.9,50.3,29.71,North,0,0.0,0.0,38,0.00,,BKN220,0.00,VWS V14.01,2013-06-23 09:46:00,
2013-06-23 03:47:00,77.9,50.3,29.71,North,0,0.0,0.0,38,0.00,,BKN220,0.00,VWS V14.01,2013-06-23 09:47:00,
2013-06-23 03:48:00,77.9,50.3,29.71,North,0,0.0,0.0,38,0.00,,BKN220,0.00,VWS V14.01,2013-06-23 09:48:00,
2013-06-23 03:49:00,77.9,50.3,29.71,North,0,0.0,0.0,38,0.00,,BKN220,0.00,VWS V14.01,2013-06-23 09:49:00,
2013-06-23 03:50:00,77.9,50.3,29.71,North,0,0.0,0.0,38,0.00,,BKN220,0.00,VWS V14.01,2013-06-23 09:50:00,
2013-06-23 03:51:00,77.9,50.3,29.71,North,0,0.0,0.0,38,0.00,,BKN220,0.00,VWS V14.01,2013-06-23 09:51:00,
2013-06-23 03:52:00,77.9,50.3,29.71,North,0,0.0,0.0,38,0.00,,BKN220,0.00,VWS V14.01,2013-06-23 09:52:00,
2013-06-23 03:53:00,77.9,50.3,29.71,North,0,0.0,0.0,38,0.00,,BKN220,0.00,VWS V14.01,2013-06-23 09:53:00,
2013-06-23 03:54:00,77.9,50.3,29.71,North,0,0.0,0.0,38,0.00,,BKN220,0.00,VWS V14.01,2013-06-23 09:54:00,
2013-06-23 03:55:00,77.7,50.1,29.71,North,0,0.0,0.0,38,0.00,,BKN220,0.00,VWS V14.01,2013-06-23 09:55:00,
2013-06-23 03:56:00,77.7,50.1,29.71,North,0,0.0,0.0,38,0.00,,BKN220,0.00,VWS V14.01,2013-06-23 09:56:00,
2013-06-23 03:57:00,77.7,50.1,29.71,North,0,0.0,0.0,38,0.00,,BKN220,0.00,VWS V14.01,2013-06-23 09:57:00,
2013-06-23 03:58:00,77.7,50.1,29.71,North,0,0.0,0.0,38,0.00,,BKN220,0.00,VWS V14.01,2013-06-23 09:58:00,
2013-06-23 03:59:00,77.7,50.1,29.71,North,0,0.0,0.0,38,0.00,,BKN220,0.00,VWS V14.01,2013-06-23 09:59:00,
2013-06-23 04:00:00,77.7,50.1,29.72,North,0,0.0,0.0,38,0.00,,BKN220,0.00,VWS V14.01,2013-06-23 10:00:00,
2013-06-23 04:01:00,77.7,50.1,29.72,North,0,0.0,0.0,38,0.00,,BKN220,0.00,VWS V14.01,2013-06-23 10:01:00,
2013-06-23 04:02:00,77.6,50.0,29.72,North,0,0.0,0.0,38,0.00,,BKN220,0.00,VWS V14.01,2013-06-23 10:02:00,
2013-06-23 04:03:00,77.6,50.0,29.72,North,0,0.0,0.0,38,0.00,,BKN220,0.00,VWS V14.01,2013-06-23 10:03:00,
2013-06-23 04:04:00,77.6,50.0,29.72,North,0,0.0,0.0,38,0.00,,BKN220,0.00,VWS V14.01,2013-06-23 10:04:00,
2013-06-23 04:05:00,77.6,50.0,29.72,North,0,0.0,0.0,38,0.00,,BKN220,0.00,VWS V14.01,2013-06-23 10:05:00,
2013-06-23 04:06:00,77.6,50.0,29.72,North,0,0.0,0.0,38,0.00,,BKN220,0.00,VWS V14.01,2013-06-23 10:06:00,
2013-06-23 04:07:00,77.6,50.0,29.72,North,0,0.0,0.0,38,0.00,,BKN220,0.00,VWS V14.01,2013-06-23 10:07:00,
2013-06-23 04:08:00,77.6,50.0,29.72,North,0,0.0,0.0,38,0.00,,BKN220,0.00,VWS V14.01,2013-06-23 10:08:00,
2013-06-23 04:09:00,77.6,50.0,29.72,North,0,0.0,0.0,38,0.00,,BKN220,0.00,VWS V14.01,2013-06-23 10:09:00,
2013-06-23 04:10:00,77.6,50.0,29.72,North,0,0.0,0.0,38,0.00,,BKN220,0.00,VWS V14.01,2013-06-23 10:10:00,
2013-06-23 04:11:00,77.4,49.8,29.72,North,0,0.0,0.0,38,0.00,,BKN220,0.00,VWS V14.01,2013-06-23 10:11:00,
2013-06-23 04:12:00,77.4,49.8,29.72,North,0,0.0,0.0,38,0.00,,BKN220,0.00,VWS V14.01,2013-06-23 10:12:00,
2013-06-23 04:13:00,77.4,49.8,29.72,North,0,0.0,0.0,38,0.00,,BKN220,0.00,VWS V14.01,2013-06-23 10:13:00,
2013-06-23 04:14:00,77.4,49.8,29.72,North,0,0.0,0.0,38,0.00,,BKN220,0.00,VWS V14.01,2013-06-23 10:14:00,
2013-06-23 04:15:00,77.4,49.8,29.71,North,0,0.0,0.0,38,0.00,,BKN220,0.00,VWS V14.01,2013-06-23 10:15:00,
2013-06-23 04:16:00,77.4,49.8,29.71,North,0,0.0,0.0,38,0.00,,BKN220,0.00,VWS V14.01,2013-06-23 10:16:00,
2013-06-23 04:17:00,77.4,49.8,29.71,North,0,0.0,0.0,38,0.00,,BKN220,0.00,VWS V14.01,2013-06-23 10:17:00,
2013-06-23 04:18:00,77.4,49.8,29.71,North,0,0.0,0.0,38,0.00,,BKN220,0.00,VWS V14.01,2013-06-23 10:18:00,
2013-06-23 04:20:00,77.2,49.7,29.71,North,0,0.0,0.0,38,0.00,,BKN220,0.00,VWS V14.01,2013-06-23 10:20:00,
2013-06-23 04:29:00,77.0,50.2,29.71,North,0,0.0,0.0,39,0.00,,SCT250,0.00,VWS V14.01,2013-06-23 10:29:00,
2013-06-23 04:30:00,77.2,50.3,29.71,North,0,0.0,0.0,39,0.00,,BKN220,0.00,VWS V14.01,2013-06-23 10:30:00,
2013-06-23 04:35:00,76.8,50.0,29.71,North,0,0.0,0.0,39,0.00,,SCT250,0.00,VWS V14.01,2013-06-23 10:35:00,
2013-06-23 04:40:00,76.5,50.4,29.71,North,0,0.0,0.0,40,0.00,,SCT250,0.00,VWS V14.01,2013-06-23 10:40:00,
2013-06-23 04:45:00,76.3,50.2,29.70,North,0,0.0,0.0,40,0.00,,SCT250,0.00,VWS V14.01,2013-06-23 10:45:00,
2013-06-23 04:50:00,76.1,50.0,29.70,North,0,0.0,0.0,40,0.00,,SCT250,0.00,VWS V14.01,2013-06-23 10:50:00,
2013-06-23 04:55:00,76.0,50.0,29.70,North,0,0.0,0.0,40,0.00,,SCT250,0.00,VWS V14.01,2013-06-23 10:55:00,
2013-06-23 05:00:00,75.6,50.3,29.71,North,0,0.0,0.0,41,0.00,,SCT250,0.00,VWS V14.01,2013-06-23 11:00:00,
2013-06-23 05:05:00,75.4,50.1,29.71,North,0,0.0,0.0,41,0.00,,SCT250,0.00,VWS V14.01,2013-06-23 11:05:00,
2013-06-23 05:10:00,75.3,50.0,29.71,North,0,0.0,0.0,41,0.00,,SCT250,0.00,VWS V14.01,2013-06-23 11:10:00,
2013-06-23 05:15:00,74.9,50.3,29.70,North,0,0.0,0.0,42,0.00,,SCT250,0.00,VWS V14.01,2013-06-23 11:15:00,
2013-06-23 05:20:00,74.2,49.7,29.70,North,0,0.0,0.0,42,0.00,,SCT250,0.00,VWS V14.01,2013-06-23 11:20:00,
2013-06-23 05:25:00,73.7,49.8,29.70,North,0,0.0,0.0,43,0.00,,SCT250,0.00,VWS V14.01,2013-06-23 11:25:00,
2013-06-23 05:30:00,73.0,49.8,29.71,North,0,0.0,0.0,44,0.00,,SCT250,0.00,VWS V14.01,2013-06-23 11:30:00,
2013-06-23 05:35:00,72.5,50.0,29.71,North,0,0.0,0.0,45,0.00,,SCT250,0.00,VWS V14.01,2013-06-23 11:35:00,
2013-06-23 05:40:00,72.1,49.6,29.71,North,0,0.0,0.0,45,0.00,,SCT250,0.00,VWS V14.01,2013-06-23 11:40:00,
2013-06-23 05:45:00,71.8,49.3,29.71,North,0,0.0,0.0,45,0.00,,SCT250,0.00,VWS V14.01,2013-06-23 11:45:00,
2013-06-23 05:50:00,71.6,49.8,29.71,North,0,0.0,0.0,46,0.00,,SCT250,0.00,VWS V14.01,2013-06-23 11:50:00,
2013-06-23 05:55:00,71.6,49.8,29.71,North,0,0.0,0.0,46,0.00,,SCT250,0.00,VWS V14.01,2013-06-23 11:55:00,
2013-06-23 05:59:00,71.5,49.1,29.71,North,0,0.0,0.0,45,0.00,,SCT250,0.00,VWS V14.01,2013-06-23 11:59:00,
2013-06-23 06:04:00,71.1,48.7,29.71,North,0,0.0,0.0,45,0.00,,SCT250,0.00,VWS V14.01,2013-06-23 12:04:00,
2013-06-23 06:09:00,70.9,48.5,29.71,North,0,0.0,0.0,45,0.00,,SCT250,0.00,VWS V14.01,2013-06-23 12:09:00,
2013-06-23 06:14:00,70.6,48.2,29.71,North,0,0.0,0.0,45,0.00,,SCT250,0.00,VWS V14.01,2013-06-23 12:14:00,
2013-06-23 06:19:00,70.6,48.2,29.71,North,0,0.0,0.0,45,0.00,,SCT250,0.00,VWS V14.01,2013-06-23 12:19:00,
2013-06-23 06:24:00,70.6,48.2,29.71,North,0,0.0,0.0,45,0.00,,SCT250,0.00,VWS V14.01,2013-06-23 12:24:00,
2013-06-23 06:29:00,70.8,48.4,29.71,North,0,0.0,0.0,45,0.00,,SCT250,0.00,VWS V14.01,2013-06-23 12:29:00,
2013-06-23 06:34:00,70.8,47.8,29.71,North,0,0.0,0.0,44,0.00,,SCT250,0.00,VWS V14.01,2013-06-23 12:34:00,
2013-06-23 06:39:00,70.9,48.5,29.71,North,0,0.0,0.0,45,0.00,,SCT250,0.00,VWS V14.01,2013-06-23 12:39:00,
2013-06-23 06:44:00,71.1,48.1,29.71,North,0,0.0,0.0,44,0.00,,SCT250,0.00,VWS V14.01,2013-06-23 12:44:00,
2013-06-23 06:49:00,71.6,47.3,29.71,North,0,0.0,0.0,42,0.00,,SCT250,0.00,VWS V14.01,2013-06-23 12:49:00,
2013-06-23 06:54:00,72.1,47.8,29.71,North,0,0.0,0.0,42,0.00,,SCT250,0.00,VWS V14.01,2013-06-23 12:54:00,
2013-06-23 06:59:00,72.5,48.1,29.71,North,0,0.0,0.0,42,0.00,,CLR,0.00,VWS V14.01,2013-06-23 12:59:00,
2013-06-23 07:04:00,73.0,47.9,29.71,North,0,0.0,0.0,41,0.00,,CLR,0.00,VWS V14.01,2013-06-23 13:04:00,
2013-06-23 07:09:00,73.2,48.1,29.71,North,0,0.0,0.0,41,0.00,,CLR,0.00,VWS V14.01,2013-06-23 13:09:00,
2013-06-23 07:14:00,73.5,48.4,29.71,North,0,0.0,0.0,41,0.00,,CLR,0.00,VWS V14.01,2013-06-23 13:14:00,
2013-06-23 07:19:00,73.9,48.1,29.71,North,0,0.0,0.0,40,0.00,,CLR,0.00,VWS V14.01,2013-06-23 13:19:00,
2013-06-23 07:24:00,74.6,47.3,29.71,North,0,0.0,0.0,38,0.00,,CLR,0.00,VWS V14.01,2013-06-23 13:24:00,
2013-06-23 07:29:00,75.3,47.3,29.71,North,0,0.0,0.0,37,0.00,,CLR,0.00,VWS V14.01,2013-06-23 13:29:00,
2013-06-23 07:34:00,76.1,47.2,29.72,North,0,0.0,0.0,36,0.00,,CLR,0.00,VWS V14.01,2013-06-23 13:34:00,
2013-06-23 07:39:00,77.2,47.5,29.72,North,0,0.0,0.0,35,0.00,,CLR,0.00,VWS V14.01,2013-06-23 13:39:00,
2013-06-23 07:44:00,78.1,46.7,29.72,North,0,0.0,0.0,33,0.00,,CLR,0.00,VWS V14.01,2013-06-23 13:44:00,
2013-06-23 07:49:00,79.0,46.7,29.72,North,0,0.0,0.0,32,0.00,,CLR,0.00,VWS V14.01,2013-06-23 13:49:00,
2013-06-23 07:54:00,79.9,46.6,29.72,North,0,0.0,0.0,31,0.00,,CLR,0.00,VWS V14.01,2013-06-23 13:54:00,
2013-06-23 07:59:00,81.1,47.6,29.72,North,0,0.0,0.0,31,0.00,,CLR,0.00,VWS V14.01,2013-06-23 13:59:00,
2013-06-23 08:04:00,82.0,46.6,29.72,North,0,0.0,0.0,29,0.00,,CLR,0.00,VWS V14.01,2013-06-23 14:04:00,
2013-06-23 08:09:00,82.8,46.4,29.72,North,0,0.0,0.0,28,0.00,,CLR,0.00,VWS V14.01,2013-06-23 14:09:00,
2013-06-23 08:14:00,83.6,46.1,29.72,North,0,0.0,0.0,27,0.00,,CLR,0.00,VWS V14.01,2013-06-23 14:14:00,
2013-06-23 08:19:00,84.3,46.7,29.72,North,0,0.0,0.0,27,0.00,,CLR,0.00,VWS V14.01,2013-06-23 14:19:00,
2013-06-23 08:24:00,84.1,47.5,29.72,North,0,0.0,0.0,28,0.00,,CLR,0.00,VWS V14.01,2013-06-23 14:24:00,
2013-06-23 08:29:00,83.8,47.2,29.72,North,0,0.0,0.0,28,0.00,,CLR,0.00,VWS V14.01,2013-06-23 14:29:00,
2013-06-23 08:34:00,84.0,46.5,29.72,North,0,0.0,0.0,27,0.00,,CLR,0.00,VWS V14.01,2013-06-23 14:34:00,
2013-06-23 08:39:00,84.3,46.7,29.72,North,0,0.0,0.0,27,0.00,,CLR,0.00,VWS V14.01,2013-06-23 14:39:00,
2013-06-23 08:44:00,84.0,46.5,29.72,North,0,0.0,0.0,27,0.00,,CLR,0.00,VWS V14.01,2013-06-23 14:44:00,
2013-06-23 08:49:00,84.0,46.5,29.72,North,0,0.0,0.0,27,0.00,,CLR,0.00,VWS V14.01,2013-06-23 14:49:00,
2013-06-23 08:54:00,84.0,46.5,29.72,North,0,0.0,0.0,27,0.00,,CLR,0.00,VWS V14.01,2013-06-23 14:54:00,
2013-06-23 08:59:00,84.1,46.5,29.72,North,0,0.0,0.0,27,0.00,,FEW250,0.00,VWS V14.01,2013-06-23 14:59:00,
2013-06-23 09:04:00,84.9,46.2,29.72,North,0,0.0,0.0,26,0.00,,FEW250,0.00,VWS V14.01,2013-06-23 15:04:00,
2013-06-23 09:09:00,85.5,45.7,29.72,North,0,0.0,0.0,25,0.00,,FEW250,0.00,VWS V14.01,2013-06-23 15:09:00,
2013-06-23 09:14:00,85.7,45.9,29.72,North,0,0.0,0.0,25,0.00,,FEW250,0.00,VWS V14.01,2013-06-23 15:14:00,
2013-06-23 09:19:00,86.1,46.2,29.72,North,0,0.0,0.0,25,0.00,,FEW250,0.00,VWS V14.01,2013-06-23 15:19:00,
2013-06-23 09:24:00,86.3,46.4,29.72,North,0,0.0,0.0,25,0.00,,FEW250,0.00,VWS V14.01,2013-06-23 15:24:00,
2013-06-23 09:29:00,87.0,44.8,29.72,North,0,0.0,0.0,23,0.00,,FEW250,0.00,VWS V14.01,2013-06-23 15:29:00,
2013-06-23 09:34:00,87.8,45.4,29.72,North,0,0.0,0.0,23,0.00,,FEW250,0.00,VWS V14.01,2013-06-23 15:34:00,
2013-06-23 09:39:00,88.4,43.5,29.72,North,0,0.0,0.0,21,0.00,,FEW250,0.00,VWS V14.01,2013-06-23 15:39:00,
2013-06-23 09:44:00,89.3,44.3,29.72,North,0,0.0,0.0,21,0.00,,FEW250,0.00,VWS V14.01,2013-06-23 15:44:00,
2013-06-23 09:49:00,89.7,42.0,29.73,North,0,0.0,0.0,19,0.00,,FEW250,0.00,VWS V14.01,2013-06-23 15:49:00,
2013-06-23 09:54:00,90.3,42.5,29.73,North,0,0.0,0.0,19,0.00,,FEW250,0.00,VWS V14.01,2013-06-23 15:54:00,
2013-06-23 09:59:00,90.5,42.7,29.73,North,0,0.0,0.0,19,0.00,,FEW250,0.00,VWS V14.01,2013-06-23 15:59:00,
2013-06-23 10:04:00,91.0,38.6,29.72,North,0,0.0,0.0,16,0.00,,FEW250,0.00,VWS V14.01,2013-06-23 16:04:00,
2013-06-23 10:09:00,90.7,38.4,29.72,North,0,0.0,0.0,16,0.00,,FEW250,0.00,VWS V14.01,2013-06-23 16:09:00,
2013-06-23 10:14:00,91.4,37.3,29.72,North,0,0.0,0.0,15,0.00,,FEW250,0.00,VWS V14.01,2013-06-23 16:14:00,
2013-06-23 10:19:00,91.2,37.2,29.73,North,0,0.0,0.0,15,0.00,,FEW250,0.00,VWS V14.01,2013-06-23 16:19:00,
2013-06-23 10:24:00,91.0,35.2,29.73,North,0,0.0,0.0,14,0.00,,FEW250,0.00,VWS V14.01,2013-06-23 16:24:00,
2013-06-23 10:29:00,91.4,35.6,29.73,North,0,0.0,0.0,14,0.00,,FEW250,0.00,VWS V14.01,2013-06-23 16:29:00,
2013-06-23 10:34:00,91.8,34.0,29.72,North,0,0.0,0.0,13,0.00,,FEW250,0.00,VWS V14.01,2013-06-23 16:34:00,
2013-06-23 10:39:00,91.6,31.9,29.72,North,0,0.0,0.0,12,0.00,,FEW250,0.00,VWS V14.01,2013-06-23 16:39:00,
2013-06-23 10:44:00,92.3,32.4,29.72,North,0,0.0,0.0,12,0.00,,FEW250,0.00,VWS V14.01,2013-06-23 16:44:00,
2013-06-23 10:49:00,92.7,30.6,29.72,North,0,0.0,0.0,11,0.00,,FEW250,0.00,VWS V14.01,2013-06-23 16:49:00,
2013-06-23 10:54:00,93.2,31.0,29.72,North,0,0.0,0.0,11,0.00,,CLR,0.00,VWS V14.01,2013-06-23 16:54:00,
2013-06-23 10:57:00,93.2,28.6,29.72,North,0,0.0,0.0,10,0.00,,CLR,0.00,VWS V14.01,2013-06-23 16:57:00,
2013-06-23 11:02:00,93.2,26.0,29.73,North,0,0.0,0.0,9,0.00,,CLR,0.00,VWS V14.01,2013-06-23 17:02:00,
2013-06-23 11:07:00,93.4,26.2,29.73,North,0,0.0,0.0,9,0.00,,CLR,0.00,VWS V14.01,2013-06-23 17:07:00,
2013-06-23 11:12:00,93.2,26.0,29.73,North,0,0.0,0.0,9,0.00,,CLR,0.00,VWS V14.01,2013-06-23 17:12:00,
2013-06-23 11:17:00,93.6,28.9,29.72,North,0,0.0,0.0,10,0.00,,CLR,0.00,VWS V14.01,2013-06-23 17:17:00,
2013-06-23 11:22:00,93.6,28.9,29.72,North,0,0.0,0.0,10,0.00,,CLR,0.00,VWS V14.01,2013-06-23 17:22:00,
2013-06-23 11:27:00,93.6,28.9,29.72,North,0,0.0,0.0,10,0.00,,CLR,0.00,VWS V14.01,2013-06-23 17:27:00,
2013-06-23 11:32:00,94.0,29.2,29.72,North,0,0.0,0.0,10,0.00,,CLR,0.00,VWS V14.01,2013-06-23 17:32:00,
2013-06-23 11:37:00,94.5,29.6,29.72,North,0,0.0,0.0,10,0.00,,CLR,0.00,VWS V14.01,2013-06-23 17:37:00,
2013-06-23 11:42:00,94.7,29.7,29.72,North,0,0.0,0.0,10,0.00,,CLR,0.00,VWS V14.01,2013-06-23 17:42:00,
2013-06-23 11:47:00,95.1,30.0,29.71,North,0,0.0,0.0,10,0.00,,CLR,0.00,VWS V14.01,2013-06-23 17:47:00,
2013-06-23 11:52:00,94.9,29.9,29.71,North,0,0.0,0.0,10,0.00,,CLR,0.00,VWS V14.01,2013-06-23 17:52:00,
2013-06-23 11:57:00,95.6,30.4,29.71,North,0,0.0,0.0,10,0.00,,CLR,0.00,VWS V14.01,2013-06-23 17:57:00,
2013-06-23 12:02:00,95.9,30.6,29.71,North,0,0.0,0.0,10,0.00,,CLR,0.00,VWS V14.01,2013-06-23 18:02:00,
2013-06-23 12:07:00,96.6,31.2,29.71,North,0,0.0,0.0,10,0.00,,CLR,0.00,VWS V14.01,2013-06-23 18:07:00,
2013-06-23 12:12:00,97.1,31.6,29.71,North,0,0.0,0.0,10,0.00,,CLR,0.00,VWS V14.01,2013-06-23 18:12:00,
2013-06-23 12:17:00,96.6,28.6,29.72,North,0,0.0,0.0,9,0.00,,CLR,0.00,VWS V14.01,2013-06-23 18:17:00,
2013-06-23 12:22:00,96.1,28.2,29.72,North,0,0.0,0.0,9,0.00,,CLR,0.00,VWS V14.01,2013-06-23 18:22:00,
2013-06-23 12:27:00,95.6,27.9,29.72,North,0,0.0,0.0,9,0.00,,CLR,0.00,VWS V14.01,2013-06-23 18:27:00,
2013-06-23 12:32:00,95.9,28.1,29.71,North,0,0.0,0.0,9,0.00,,CLR,0.00,VWS V14.01,2013-06-23 18:32:00,
2013-06-23 12:37:00,96.3,28.4,29.71,North,0,0.0,0.0,9,0.00,,CLR,0.00,VWS V14.01,2013-06-23 18:37:00,
2013-06-23 12:42:00,97.5,26.4,29.71,North,0,0.0,0.0,8,0.00,,CLR,0.00,VWS V14.01,2013-06-23 18:42:00,
2013-06-23 12:47:00,98.5,30.0,29.71,North,0,0.0,0.0,9,0.00,,CLR,0.00,VWS V14.01,2013-06-23 18:47:00,
2013-06-23 12:52:00,99.2,27.6,29.71,North,0,0.0,0.0,8,0.00,,CLR,0.00,VWS V14.01,2013-06-23 18:52:00,
2013-06-23 12:57:00,98.7,27.3,29.71,North,0,0.0,0.0,8,0.00,,CLR,0.00,VWS V14.01,2013-06-23 18:57:00,
2013-06-23 13:02:00,98.5,30.0,29.69,North,0,0.0,0.0,9,0.00,,CLR,0.00,VWS V14.01,2013-06-23 19:02:00,
2013-06-23 13:07:00,98.5,30.0,29.69,North,0,0.0,0.0,9,0.00,,CLR,0.00,VWS V14.01,2013-06-23 19:07:00,
2013-06-23 13:12:00,98.2,29.8,29.69,North,0,0.0,0.0,9,0.00,,CLR,0.00,VWS V14.01,2013-06-23 19:12:00,
2013-06-23 13:17:00,97.8,29.5,29.70,North,0,0.0,0.0,9,0.00,,CLR,0.00,VWS V14.01,2013-06-23 19:17:00,
2013-06-23 13:22:00,97.8,29.5,29.70,North,0,0.0,0.0,9,0.00,,CLR,0.00,VWS V14.01,2013-06-23 19:22:00,
2013-06-23 13:27:00,98.2,29.8,29.70,North,0,0.0,0.0,9,0.00,,CLR,0.00,VWS V14.01,2013-06-23 19:27:00,
2013-06-23 13:32:00,99.2,30.5,29.69,North,0,0.0,0.0,9,0.00,,CLR,0.00,VWS V14.01,2013-06-23 19:32:00,
2013-06-23 13:37:00,99.0,30.4,29.69,North,0,0.0,0.0,9,0.00,,CLR,0.00,VWS V14.01,2013-06-23 19:37:00,
2013-06-23 13:42:00,98.7,30.2,29.69,North,0,0.0,0.0,9,0.00,,CLR,0.00,VWS V14.01,2013-06-23 19:42:00,
2013-06-23 13:47:00,99.7,30.9,29.68,North,0,0.0,0.0,9,0.00,,CLR,0.00,VWS V14.01,2013-06-23 19:47:00,
2013-06-23 13:52:00,101.0,31.9,29.68,North,0,0.0,0.0,9,0.00,,CLR,0.00,VWS V14.01,2013-06-23 19:52:00,
2013-06-23 13:57:00,100.4,31.4,29.68,North,0,0.0,0.0,9,0.00,,FEW250,0.00,VWS V14.01,2013-06-23 19:57:00,
2013-06-23 14:02:00,100.2,28.4,29.68,North,0,0.0,0.0,8,0.00,,FEW250,0.00,VWS V14.01,2013-06-23 20:02:00,
2013-06-23 14:07:00,100.4,28.5,29.68,North,0,0.0,0.0,8,0.00,,FEW250,0.00,VWS V14.01,2013-06-23 20:07:00,
2013-06-23 14:12:00,100.4,31.4,29.68,North,0,0.0,0.0,9,0.00,,FEW250,0.00,VWS V14.01,2013-06-23 20:12:00,
2013-06-23 14:17:00,101.5,29.3,29.67,North,0,0.0,0.0,8,0.00,,FEW250,0.00,VWS V14.01,2013-06-23 20:17:00,
2013-06-23 14:22:00,100.4,31.4,29.67,North,0,0.0,0.0,9,0.00,,FEW250,0.00,VWS V14.01,2013-06-23 20:22:00,
2013-06-23 14:27:00,99.7,28.0,29.67,North,0,0.0,0.0,8,0.00,,FEW250,0.00,VWS V14.01,2013-06-23 20:27:00,
2013-06-23 14:32:00,99.7,30.9,29.66,North,0,0.0,0.0,9,0.00,,FEW250,0.00,VWS V14.01,2013-06-23 20:32:00,
2013-06-23 14:37:00,101.0,31.9,29.66,North,0,0.0,0.0,9,0.00,,FEW250,0.00,VWS V14.01,2013-06-23 20:37:00,
2013-06-23 14:42:00,101.2,29.1,29.66,North,0,0.0,0.0,8,0.00,,FEW250,0.00,VWS V14.01,2013-06-23 20:42:00,
2013-06-23 14:47:00,101.5,29.3,29.66,North,0,0.0,0.0,8,0.00,,FEW250,0.00,VWS V14.01,2013-06-23 20:47:00,
2013-06-23 14:52:00,101.5,29.3,29.66,North,0,0.0,0.0,8,0.00,,FEW250,0.00,VWS V14.01,2013-06-23 20:52:00,
2013-06-23 14:57:00,101.5,29.3,29.66,North,0,0.0,0.0,8,0.00,,FEW250,0.00,VWS V14.01,2013-06-23 20:57:00,
2013-06-23 15:02:00,101.5,29.3,29.66,North,0,0.0,0.0,8,0.00,,FEW250,0.00,VWS V14.01,2013-06-23 21:02:00,
2013-06-23 15:07:00,102.0,29.7,29.66,North,0,0.0,0.0,8,0.00,,FEW250,0.00,VWS V14.01,2013-06-23 21:07:00,
2013-06-23 15:11:00,102.3,29.9,29.66,North,0,0.0,0.0,8,0.00,,FEW250,0.00,VWS V14.01,2013-06-23 21:11:00,
2013-06-23 15:16:00,102.3,29.9,29.66,North,0,0.0,0.0,8,0.00,,FEW250,0.00,VWS V14.01,2013-06-23 21:16:00,
2013-06-23 15:21:00,102.3,29.9,29.66,North,0,0.0,0.0,8,0.00,,FEW250,0.00,VWS V14.01,2013-06-23 21:21:00,
2013-06-23 15:26:00,101.2,32.0,29.66,North,0,0.0,0.0,9,0.00,,FEW250,0.00,VWS V14.01,2013-06-23 21:26:00,
2013-06-23 15:31:00,101.5,29.3,29.65,North,0,0.0,0.0,8,0.00,,FEW250,0.00,VWS V14.01,2013-06-23 21:31:00,
2013-06-23 15:36:00,102.0,29.7,29.65,North,0,0.0,0.0,8,0.00,,FEW250,0.00,VWS V14.01,2013-06-23 21:36:00,
2013-06-23 15:41:00,101.7,32.4,29.65,North,0,0.0,0.0,9,0.00,,FEW250,0.00,VWS V14.01,2013-06-23 21:41:00,
2013-06-23 15:46:00,102.3,29.9,29.65,North,0,0.0,0.0,8,0.00,,FEW250,0.00,VWS V14.01,2013-06-23 21:46:00,
2013-06-23 15:51:00,102.5,30.1,29.65,North,0,0.0,0.0,8,0.00,,FEW250,0.00,VWS V14.01,2013-06-23 21:51:00,
2013-06-23 15:56:00,102.0,32.6,29.65,North,0,0.0,0.0,9,0.00,,FEW250,0.00,VWS V14.01,2013-06-23 21:56:00,
2013-06-23 16:01:00,102.3,32.8,29.64,North,0,0.0,0.0,9,0.00,,FEW250,0.00,VWS V14.01,2013-06-23 22:01:00,
2013-06-23 16:06:00,101.7,32.4,29.64,North,0,0.0,0.0,9,0.00,,FEW250,0.00,VWS V14.01,2013-06-23 22:06:00,
2013-06-23 16:11:00,101.0,31.9,29.64,North,0,0.0,0.0,9,0.00,,FEW250,0.00,VWS V14.01,2013-06-23 22:11:00,
2013-06-23 16:16:00,101.7,32.4,29.64,North,0,0.0,0.0,9,0.00,,FEW250,0.00,VWS V14.01,2013-06-23 22:16:00,
2013-06-23 16:21:00,102.5,33.0,29.64,North,0,0.0,0.0,9,0.00,,FEW250,0.00,VWS V14.01,2013-06-23 22:21:00,
2013-06-23 16:26:00,102.5,33.0,29.64,North,0,0.0,0.0,9,0.00,,FEW250,0.00,VWS V14.01,2013-06-23 22:26:00,
2013-06-23 16:31:00,102.0,32.6,29.63,North,0,0.0,0.0,9,0.00,,FEW250,0.00,VWS V14.01,2013-06-23 22:31:00,
2013-06-23 16:36:00,101.0,31.9,29.63,North,0,0.0,0.0,9,0.00,,FEW250,0.00,VWS V14.01,2013-06-23 22:36:00,
2013-06-23 16:41:00,100.7,31.6,29.63,North,0,0.0,0.0,9,0.00,,FEW250,0.00,VWS V14.01,2013-06-23 22:41:00,
2013-06-23 16:46:00,101.2,32.0,29.63,North,0,0.0,0.0,9,0.00,,FEW250,0.00,VWS V14.01,2013-06-23 22:46:00,
2013-06-23 16:51:00,101.5,32.2,29.63,North,0,0.0,0.0,9,0.00,,FEW250,0.00,VWS V14.01,2013-06-23 22:51:00,
2013-06-23 16:56:00,101.2,32.0,29.63,North,0,0.0,0.0,9,0.00,,FEW250,0.00,VWS V14.01,2013-06-23 22:56:00,
2013-06-23 17:01:00,101.2,32.0,29.62,North,0,0.0,0.0,9,0.00,,FEW250,0.00,VWS V14.01,2013-06-23 23:01:00,
2013-06-23 17:06:00,101.5,32.2,29.62,North,0,0.0,0.0,9,0.00,,FEW250,0.00,VWS V14.01,2013-06-23 23:06:00,
2013-06-23 17:11:00,101.5,32.2,29.62,North,0,0.0,0.0,9,0.00,,FEW250,0.00,VWS V14.01,2013-06-23 23:11:00,
2013-06-23 17:16:00,101.2,34.7,29.61,North,0,0.0,0.0,10,0.00,,FEW250,0.00,VWS V14.01,2013-06-23 23:16:00,
2013-06-23 17:21:00,101.2,32.0,29.61,North,0,0.0,0.0,9,0.00,,FEW250,0.00,VWS V14.01,2013-06-23 23:21:00,
2013-06-23 17:26:00,101.0,34.5,29.61,North,0,0.0,0.0,10,0.00,,FEW250,0.00,VWS V14.01,2013-06-23 23:26:00,
2013-06-23 17:31:00,101.0,34.5,29.61,North,0,0.0,0.0,10,0.00,,FEW250,0.00,VWS V14.01,2013-06-23 23:31:00,
2013-06-23 17:36:00,101.0,31.9,29.61,North,0,0.0,0.0,9,0.00,,FEW250,0.00,VWS V14.01,2013-06-23 23:36:00,
2013-06-23 17:41:00,101.2,32.0,29.61,North,0,0.0,0.0,9,0.00,,FEW250,0.00,VWS V14.01,2013-06-23 23:41:00,
2013-06-23 17:46:00,101.2,32.0,29.60,North,0,0.0,0.0,9,0.00,,FEW250,0.00,VWS V14.01,2013-06-23 23:46:00,
2013-06-23 17:51:00,101.5,34.9,29.60,North,0,0.0,0.0,10,0.00,,FEW250,0.00,VWS V14.01,2013-06-23 23:51:00,
2013-06-23 17:56:00,101.0,31.9,29.60,North,0,0.0,0.0,9,0.00,,SCT250,0.00,VWS V14.01,2013-06-23 23:56:00,
2013-06-23 18:01:00,101.0,31.9,29.60,North,0,0.0,0.0,9,0.00,,SCT250,0.00,VWS V14.01,2013-06-24 00:01:00,
2013-06-23 18:06:00,100.4,34.0,29.60,North,0,0.0,0.0,10,0.00,,SCT250,0.00,VWS V14.01,2013-06-24 00:06:00,
2013-06-23 18:11:00,99.7,33.5,29.60,North,0,0.0,0.0,10,0.00,,SCT250,0.00,VWS V14.01,2013-06-24 00:11:00,
2013-06-23 18:16:00,99.4,33.3,29.60,North,0,0.0,0.0,10,0.00,,SCT250,0.00,VWS V14.01,2013-06-24 00:16:00,
2013-06-23 18:21:00,99.4,33.3,29.60,North,0,0.0,0.0,10,0.00,,SCT250,0.00,VWS V14.01,2013-06-24 00:21:00,
2013-06-23 18:26:00,99.2,33.1,29.60,North,0,0.0,0.0,10,0.00,,SCT250,0.00,VWS V14.01,2013-06-24 00:26:00,
2013-06-23 18:31:00,99.2,33.1,29.60,North,0,0.0,0.0,10,0.00,,SCT250,0.00,VWS V14.01,2013-06-24 00:31:00,
2013-06-23 18:36:00,99.2,33.1,29.60,North,0,0.0,0.0,10,0.00,,SCT250,0.00,VWS V14.01,2013-06-24 00:36:00,
2013-06-23 18:41:00,99.2,33.1,29.60,North,0,0.0,0.0,10,0.00,,SCT250,0.00,VWS V14.01,2013-06-24 00:41:00,
2013-06-23 18:46:00,99.0,33.0,29.60,North,0,0.0,0.0,10,0.00,,SCT250,0.00,VWS V14.01,2013-06-24 00:46:00,
2013-06-23 18:51:00,98.5,32.6,29.60,North,0,0.0,0.0,10,0.00,,SCT250,0.00,VWS V14.01,2013-06-24 00:51:00,
2013-06-23 18:56:00,98.5,32.6,29.60,North,0,0.0,0.0,10,0.00,,SCT250,0.00,VWS V14.01,2013-06-24 00:56:00,
2013-06-23 19:01:00,98.5,32.6,29.59,North,0,0.0,0.0,10,0.00,,SCT250,0.00,VWS V14.01,2013-06-24 01:01:00,
2013-06-23 19:06:00,98.2,32.4,29.59,North,0,0.0,0.0,10,0.00,,SCT250,0.00,VWS V14.01,2013-06-24 01:06:00,
2013-06-23 19:11:00,98.2,32.4,29.59,North,0,0.0,0.0,10,0.00,,SCT250,0.00,VWS V14.01,2013-06-24 01:11:00,
2013-06-23 19:16:00,98.0,32.2,29.59,North,0,0.0,0.0,10,0.00,,SCT250,0.00,VWS V14.01,2013-06-24 01:16:00,
2013-06-23 19:21:00,97.8,32.1,29.59,North,0,0.0,0.0,10,0.00,,SCT250,0.00,VWS V14.01,2013-06-24 01:21:00,
2013-06-23 19:26:00,97.3,31.7,29.59,North,0,0.0,0.0,10,0.00,,SCT250,0.00,VWS V14.01,2013-06-24 01:26:00,
2013-06-23 19:31:00,96.8,31.3,29.60,North,0,0.0,0.0,10,0.00,,SCT250,0.00,VWS V14.01,2013-06-24 01:31:00,
2013-06-23 19:36:00,96.1,33.2,29.60,North,0,0.0,0.0,11,0.00,,SCT250,0.00,VWS V14.01,2013-06-24 01:36:00,
2013-06-23 19:41:00,95.6,30.4,29.60,North,0,0.0,0.0,10,0.00,,SCT250,0.00,VWS V14.01,2013-06-24 01:41:00,
2013-06-23 19:46:00,95.1,32.4,29.59,North,0,0.0,0.0,11,0.00,,SCT250,0.00,VWS V14.01,2013-06-24 01:46:00,
2013-06-23 19:51:00,94.7,32.1,29.59,North,0,0.0,0.0,11,0.00,,SCT250,0.00,VWS V14.01,2013-06-24 01:51:00,
2013-06-23 19:56:00,94.3,31.8,29.59,North,0,0.0,0.0,11,0.00,,SCT250,0.00,VWS V14.01,2013-06-24 01:56:00,
2013-06-23 20:01:00,93.8,33.6,29.59,North,0,0.0,0.0,12,0.00,,SCT250,0.00,VWS V14.01,2013-06-24 02:01:00,
2013-06-23 20:06:00,93.4,33.3,29.59,North,0,0.0,0.0,12,0.00,,SCT250,0.00,VWS V14.01,2013-06-24 02:06:00,
2013-06-23 20:11:00,92.9,32.9,29.59,North,0,0.0,0.0,12,0.00,,SCT250,0.00,VWS V14.01,2013-06-24 02:11:00,
2013-06-23 20:16:00,92.5,32.6,29.60,North,0,0.0,0.0,12,0.00,,SCT250,0.00,VWS V14.01,2013-06-24 02:16:00,
2013-06-23 20:21:00,92.1,34.2,29.60,North,0,0.0,0.0,13,0.00,,SCT250,0.00,VWS V14.01,2013-06-24 02:21:00,
2013-06-23 20:26:00,91.6,33.9,29.60,North,0,0.0,0.0,13,0.00,,SCT250,0.00,VWS V14.01,2013-06-24 02:26:00,
2013-06-23 20:31:00,91.2,33.5,29.60,North,0,0.0,0.0,13,0.00,,SCT250,0.00,VWS V14.01,2013-06-24 02:31:00,
2013-06-23 20:36:00,90.5,34.8,29.60,North,0,0.0,0.0,14,0.00,,SCT250,0.00,VWS V14.01,2013-06-24 02:36:00,
2013-06-23 20:41:00,90.1,32.7,29.60,North,0,0.0,0.0,13,0.00,,SCT250,0.00,VWS V14.01,2013-06-24 02:41:00,
2013-06-23 20:46:00,89.7,34.2,29.60,North,0,0.0,0.0,14,0.00,,SCT250,0.00,VWS V14.01,2013-06-24 02:46:00,
2013-06-23 20:51:00,89.3,33.9,29.60,North,0,0.0,0.0,14,0.00,,SCT250,0.00,VWS V14.01,2013-06-24 02:51:00,
2013-06-23 20:56:00,88.8,33.5,29.60,North,0,0.0,0.0,14,0.00,,SCT130,0.00,VWS V14.01,2013-06-24 02:56:00,
2013-06-23 21:01:00,88.4,34.9,29.60,North,0,0.0,0.0,15,0.00,,SCT130,0.00,VWS V14.01,2013-06-24 03:01:00,
2013-06-23 21:06:00,88.0,36.2,29.60,North,0,0.0,0.0,16,0.00,,SCT130,0.00,VWS V14.01,2013-06-24 03:06:00,
2013-06-23 21:11:00,87.8,36.1,29.60,North,0,0.0,0.0,16,0.00,,SCT130,0.00,VWS V14.01,2013-06-24 03:11:00,
2013-06-23 21:16:00,87.8,34.5,29.60,North,0,0.0,0.0,15,0.00,,SCT130,0.00,VWS V14.01,2013-06-24 03:16:00,
2013-06-23 21:21:00,87.6,34.3,29.60,North,0,0.0,0.0,15,0.00,,SCT130,0.00,VWS V14.01,2013-06-24 03:21:00,
2013-06-23 21:26:00,87.6,34.3,29.60,North,0,0.0,0.0,15,0.00,,SCT130,0.00,VWS V14.01,2013-06-24 03:26:00,
2013-06-23 21:31:00,87.6,34.3,29.60,North,0,0.0,0.0,15,0.00,,SCT130,0.00,VWS V14.01,2013-06-24 03:31:00,
2013-06-23 21:36:00,87.6,34.3,29.60,North,0,0.0,0.0,15,0.00,,SCT130,0.00,VWS V14.01,2013-06-24 03:36:00,
2013-06-23 21:41:00,87.6,34.3,29.60,North,0,0.0,0.0,15,0.00,,SCT130,0.00,VWS V14.01,2013-06-24 03:41:00,
2013-06-23 21:46:00,87.4,34.1,29.61,North,0,0.0,0.0,15,0.00,,SCT130,0.00,VWS V14.01,2013-06-24 03:46:00,
2013-06-23 21:51:00,87.4,35.8,29.61,North,0,0.0,0.0,16,0.00,,SCT130,0.00,VWS V14.01,2013-06-24 03:51:00,
2013-06-23 21:56:00,87.4,35.8,29.61,North,0,0.0,0.0,16,0.00,,BKN130,0.00,VWS V14.01,2013-06-24 03:56:00,
2013-06-23 22:01:00,87.4,35.8,29.62,North,0,0.0,0.0,16,0.00,,BKN130,0.00,VWS V14.01,2013-06-24 04:01:00,
2013-06-23 22:06:00,87.2,37.1,29.62,North,0,0.0,0.0,17,0.00,,BKN130,0.00,VWS V14.01,2013-06-24 04:06:00,
2013-06-23 22:11:00,87.2,37.1,29.62,North,0,0.0,0.0,17,0.00,,BKN130,0.00,VWS V14.01,2013-06-24 04:11:00,
2013-06-23 22:16:00,87.0,37.0,29.61,North,0,0.0,0.0,17,0.00,,BKN130,0.00,VWS V14.01,2013-06-24 04:16:00,
2013-06-23 22:21:00,87.0,35.4,29.61,North,0,0.0,0.0,16,0.00,,BKN130,0.00,VWS V14.01,2013-06-24 04:21:00,
2013-06-23 22:26:00,86.7,36.7,29.61,North,0,0.0,0.0,17,0.00,,BKN130,0.00,VWS V14.01,2013-06-24 04:26:00,
2013-06-23 22:31:00,86.5,38.0,29.62,North,0,0.0,0.0,18,0.00,,BKN130,0.00,VWS V14.01,2013-06-24 04:31:00,
2013-06-23 22:36:00,86.3,36.4,29.62,North,0,0.0,0.0,17,0.00,,BKN130,0.00,VWS V14.01,2013-06-24 04:36:00,
2013-06-23 22:41:00,86.1,37.7,29.62,North,0,0.0,0.0,18,0.00,,BKN130,0.00,VWS V14.01,2013-06-24 04:41:00,
2013-06-23 22:46:00,86.1,37.7,29.62,North,0,0.0,0.0,18,0.00,,BKN130,0.00,VWS V14.01,2013-06-24 04:46:00,
2013-06-23 22:51:00,85.9,36.1,29.62,North,0,0.0,0.0,17,0.00,,BKN130,0.00,VWS V14.01,2013-06-24 04:51:00,
2013-06-23 22:56:00,85.9,36.1,29.62,North,0,0.0,0.0,17,0.00,,BKN130,0.00,VWS V14.01,2013-06-24 04:56:00,
2013-06-23 23:01:00,86.3,34.9,29.63,North,0,0.0,0.0,16,0.00,,BKN130,0.00,VWS V14.01,2013-06-24 05:01:00,
2013-06-23 23:06:00,86.7,33.6,29.63,North,0,0.0,0.0,15,0.00,,BKN130,0.00,VWS V14.01,2013-06-24 05:06:00,
2013-06-23 23:11:00,87.2,34.0,29.63,North,0,0.0,0.0,15,0.00,,BKN130,0.00,VWS V14.01,2013-06-24 05:11:00,
2013-06-23 23:16:00,87.4,34.1,29.63,North,0,0.0,0.0,15,0.00,,BKN130,0.00,VWS V14.01,2013-06-24 05:16:00,
2013-06-23 23:21:00,87.4,34.1,29.63,North,0,0.0,0.0,15,0.00,,BKN130,0.00,VWS V14.01,2013-06-24 05:21:00,
2013-06-23 23:26:00,87.4,34.1,29.63,North,0,0.0,0.0,15,0.00,,BKN130,0.00,VWS V14.01,2013-06-24 05:26:00,
2013-06-23 23:31:00,87.4,34.1,29.63,North,0,0.0,0.0,15,0.00,,BKN130,0.00,VWS V14.01,2013-06-24 05:31:00,
2013-06-23 23:36:00,87.4,34.1,29.63,North,0,0.0,0.0,15,0.00,,BKN130,0.00,VWS V14.01,2013-06-24 05:36:00,
2013-06-23 23:41:00,87.4,34.1,29.63,North,0,0.0,0.0,15,0.00,,BKN130,0.00,VWS V14.01,2013-06-24 05:41:00,
2013-06-23 23:46:00,87.4,34.1,29.64,North,0,0.0,0.0,15,0.00,,BKN130,0.00,VWS V14.01,2013-06-24 05:46:00,
2013-06-23 23:51:00,87.2,34.0,29.64,North,0,0.0,0.0,15,0.00,,BKN130,0.00,VWS V14.01,2013-06-24 05:51:00,
2013-06-23 23:56:00,87.2,34.0,29.64,North,0,0.0,0.0,15,0.00,,BKN250,0.00,VWS V14.01,2013-06-24 05:56:00,